STARLINK-1131 (45047 NORAD) Tracking and Keplerian Element Data

This shows tracking and keplerian element data for the satellite.

Feedback or suggestion? Click here.




ElementValue
Catalog45047
NameSTARLINK-1131
Epoch Orbit2575
Epoch Day196.91667824
Epoch Year2020
RAAN191.2534
Inclination53
Eccentricity0.0001212
Argument of Perigee86.789
Mean Anonmoly6.0699
Mean Motion15.05594225
Decay Rate0.00038015
L11 45047U 20006D 20196.91667824 .00038015 00000-0 26132-2 0 9992
L22 45047 53.0000 191.2534 0001212 86.7890 6.0699 15.05594225 25756

Live tracking and technical data element details for STARLINK-1131 (NORAD 45047). STARLINK-1131 can be tracked NOW for your location showing map with azimuth and elevation plus other details from your city location.

Track the satellite on the map from your city or location and see movement details for azimuth, elevation, latitude, longitude, range, height, and movement on the map or in text.







IsCatalogInMostPopularTable: catalog: 45047, numindb: 30
Update: records affected: 1



GetName: 45047 STARLINK-1131

Hit Count: updated at: Thu, 16 Jul 2020 02:45:25 GMT